Weather in Borj Sedria

Tunisia     36°42′48″N   10°22′10″E
temp.,
°C
wind,
m/s
gust,
m/s
humid.,
%
clouds,
%
prec.,
mm/h
press.,
hPa
HPBL,
m
1 march, mon
mon101:00+12se36790 0.0 1026300
04:00+10sse34770 0.0 1025152
07:00+10sse33800 0.0 1026119
10:00+15sse46580 0.0 1026658
13:00+18sse57490 0.0 1026837
16:00+18se56530 0.0 1024692
19:00+13se45790 0.0 1025293
22:00+12se34844 0.0 1027199
2 march, tue
tue201:00+12se36872 0.0 1027268
04:00+11se378812 0.0 1026348
07:00+12se388654 0.0 1027526
10:00+15se5769100 0.1 10281073
13:00+18se675996 0.1 10281172
16:00+17se686188 0.0 10271148
19:00+13ese598289 0.1 1028531
22:00+12se498620 0.0 1030461
3 march, wed
wed301:00+12se378646 0.0 1030415
04:00+11ese378681 0.0 1029368
07:00+11se488481 0.0 1029428
10:00+15ese686490 0.0 10301233
13:00+17ese685282 0.0 10281376
16:00+16ese78590 0.0 10261301
19:00+13ese597229 0.0 1027661
22:00+12se487995 0.0 1027567
4 march, thu
thu401:00+11se258297 0.0 1026376
04:00+11se3685100 0.1 1024406
07:00+11se3780100 0.1 1023413
10:00+15se796387 0.0 1023975
13:00+17se795972 0.1 10211311
16:00+15se686695 0.1 10191108
19:00+13ese488097 0.3 1018585
22:00+13ese4878100 0.1 1019634
5 march, fri
fri501:00+13ese487998 0.1 1018617
04:00+13ese477892 0.1 1015524
07:00+13e478188 0.3 1015571
10:00+16e567084 0.4 1016860
13:00+18e566065 0.8 10151074
16:00+18e446046 0.4 10141055
19:00+14ese357831 0.4 1015297
22:00+13se22840 0.0 1017117